Pittsfield, MA

3:15 PM EDT on October 18, 2019 (GMT -0400)
Pittsfield Municipal

Weather History for KPSF - August, 2019

Change the Weather History Date:

Sunday, August 25, 2019

  Actual Average Record
Temperature  
Mean Temperature 62 °F 66 °F  
Max Temperature 73 °F 76 °F 91 °F (1948)
Min Temperature 51 °F 55 °F 38 °F (1927)
Degree Days  
Heating Degree Days 3 2  
Month to date heating degree days 11 29  
Since 1 June heating degree days 78 161  
Since 1 July heating degree days 11 60  
Cooling Degree Days 0 2  
Month to date cooling degree days 109 84  
Year to date cooling degree days 385 261  
Since 1 June cooling degree days 379 248  
Growing Degree Days 12 (Base 50)    
Moisture  
Dew Point 51 °F    
Average Humidity 69    
Maximum Humidity 93    
Minimum Humidity 43    
Precipitation  
Precipitation T in 0.13 in 1.00 in (1958)
Month to date precipitation 1.62 3.37  
Year to date precipitation 27.76 29.06  
Sea Level Pressure  
Sea Level Pressure 30.25 in    
Wind  
Wind Speed 6 mph ()    
Max Wind Speed 13 mph    
Max Gust Speed 17 mph    
Visibility 10.0 miles    
Events Rain    
T = Trace of Precipitation, MM = Missing Value Source: Averaged Metar Reports

Daily Weather History Graph

Daily Weather History Graph

Search for Another Location

Airport or City:

Astronomy

Aug. 25, 2019 Rise Set
Actual Time 6:10 AM EDT 7:39 PM EDT
Civil Twilight 5:41 AM EDT 8:08 PM EDT
Nautical Twilight 5:05 AM EDT 8:44 PM EDT
Astronomical Twilight 4:27 AM EDT 9:21 PM EDT
Moon 12:39 AM EDT (8/25) 4:01 PM EDT (8/25)
Length of Visible Light 14h 27m
Length of Day
13h 28m
Waning Crescent, 29% of the Moon is Illuminated
Aug 25
Waning Crescent
Aug 30
New
Sep 5
First Quarter
Sep 14
Full
Sep 21
Last Quarter

Hourly Weather History & Observations

Time (EDT) Temp. Dew Point Humidity Pressure Visibility Wind Dir Wind Speed Gust Speed Precip Events Conditions
12:20 AM 63.0 °F 54.0 °F 72% 30.30 in 10.0 mi ESE 10.4 mph - N/A   Overcast
12:54 AM 63.0 °F 54.0 °F 72% 30.24 in 10.0 mi East 8.1 mph - N/A   Overcast
1:27 AM 62.1 °F 54.0 °F 75% 30.30 in 10.0 mi ESE 6.9 mph - N/A   Overcast
1:54 AM 61.0 °F 54.0 °F 78% 30.24 in 10.0 mi East 5.8 mph - 0.00 in Rain Light Rain
2:54 AM 59.0 °F 55.0 °F 87% 30.23 in 10.0 mi NE 4.6 mph - 0.00 in   Overcast
3:54 AM 57.9 °F 55.0 °F 90% 30.24 in 10.0 mi NNE 3.5 mph - N/A   Partly Cloudy
4:54 AM 55.0 °F 52.0 °F 89% 30.25 in 10.0 mi ENE 5.8 mph - N/A   Partly Cloudy
5:54 AM 54.0 °F 51.1 °F 90% 30.27 in 10.0 mi Calm Calm - N/A   Clear
6:54 AM 54.0 °F 52.0 °F 93% 30.27 in 10.0 mi Calm Calm - N/A   Clear
7:54 AM 60.1 °F 54.0 °F 80% 30.29 in 10.0 mi Variable 3.5 mph - N/A   Clear
8:54 AM 64.0 °F 55.0 °F 73% 30.29 in 10.0 mi ENE 6.9 mph - N/A   Mostly Cloudy
9:54 AM 63.0 °F 54.0 °F 72% 30.30 in 10.0 mi NNE 6.9 mph - N/A   Overcast
10:54 AM 64.9 °F 52.0 °F 63% 30.28 in 10.0 mi NE 8.1 mph - N/A   Overcast
11:54 AM 66.9 °F 53.1 °F 61% 30.27 in 10.0 mi ENE 8.1 mph - N/A   Overcast
12:54 PM 68.0 °F 52.0 °F 56% 30.25 in 10.0 mi NE 8.1 mph - N/A   Overcast
1:54 PM 71.1 °F 48.9 °F 45% 30.24 in 10.0 mi ENE 10.4 mph 17.3 mph N/A   Clear
2:54 PM 72.0 °F 48.0 °F 43% 30.23 in 10.0 mi ENE 10.4 mph - N/A   Clear
3:54 PM 71.1 °F 48.9 °F 45% 30.22 in 10.0 mi ENE 10.4 mph 16.1 mph N/A   Partly Cloudy
4:54 PM 71.1 °F 48.0 °F 44% 30.22 in 10.0 mi ESE 9.2 mph - N/A   Clear
5:54 PM 69.1 °F 48.0 °F 47% 30.21 in 10.0 mi Variable 5.8 mph - N/A   Clear
6:54 PM 66.0 °F 48.0 °F 52% 30.22 in 10.0 mi Variable 4.6 mph - N/A   Clear
7:54 PM 61.0 °F 50.0 °F 67% 30.23 in 10.0 mi ESE 4.6 mph - N/A   Clear
8:54 PM 57.9 °F 48.9 °F 72% 30.25 in 10.0 mi ESE 4.6 mph - N/A   Clear
9:54 PM 57.0 °F 46.9 °F 69% 30.25 in 10.0 mi NNE 4.6 mph - N/A   Clear
10:54 PM 54.0 °F 46.9 °F 77% 30.25 in 10.0 mi NE 3.5 mph - N/A   Clear
11:54 PM 53.1 °F 46.0 °F 77% 30.25 in 10.0 mi East 3.5 mph - N/A   Clear